Weather History for Hartford, CT

Change the Weather History Date:

Wednesday, November 14, 2012

  Actual Average Record
Temperature  
Mean Temperature 40 °F -  
Max Temperature 46 °F 49 °F 71 °F (1959)
Min Temperature 33 °F 32 °F 20 °F (1986)
Degree Days  
Heating Degree Days 25    
Moisture  
Dew Point 24 °F    
Average Humidity 55    
Maximum Humidity 73    
Minimum Humidity 43    
Precipitation  
Precipitation 0.00 in - - ()
Sea Level Pressure  
Sea Level Pressure 30.49 in    
Wind  
Wind Speed 8 mph (North)    
Max Wind Speed 15 mph    
Max Gust Speed 18 mph    
Visibility 10 miles    
Events      
Averages and records for this station are not official NWS values.
T = Trace of Precipitation, MM = Missing Value Source: NWS Daily Summary

Daily Weather History Graph

Daily Weather History Graph

Search for Another Location

Airport:

Trip Planner

Search our weather history database for the weather conditions in past years. The results will help you decide how hot, cold, wet, or windy it might be!

Date:

Astronomy

Nov. 14, 2012 Rise Set
Actual Time 6:39 AM EST 4:30 PM EST
Civil Twilight 6:09 AM EST 5:00 PM EST
Nautical Twilight 5:35 AM EST 5:34 PM EST
Astronomical Twilight 5:02 AM EST 6:06 PM EST
Moon 7:25 AM EST (11/14) 5:15 PM EST (11/14)
Length of Visible Light 10h 51m
Length of Day
9h 51m
New Moon, 1% of the Moon is Illuminated
Nov 14
New Moon
Nov 20
First Quarter
Nov 28
Full
Dec 6
Last Quarter
Dec 13
New

Hourly Weather History & Observations

Time (EST) Temp. Windchill Dew Point Humidity Pressure Visibility Wind Dir Wind Speed Gust Speed Precip Events Conditions
12:53 AM 39.0 °F 32.8 °F 26.1 °F 60% 30.44 in 10.0 mi NNW 9.2 mph - N/A   Clear
1:53 AM 37.0 °F 31.6 °F 25.0 °F 62% 30.46 in 10.0 mi North 6.9 mph - N/A   Clear
2:53 AM 34.0 °F - 26.1 °F 73% 30.47 in 10.0 mi Calm Calm - N/A   Clear
3:53 AM 35.1 °F 31.0 °F 24.1 °F 64% 30.47 in 10.0 mi North 4.6 mph - N/A   Clear
4:53 AM 35.1 °F 31.0 °F 26.1 °F 70% 30.49 in 10.0 mi NE 4.6 mph - N/A   Overcast
5:53 AM 37.0 °F 30.4 °F 25.0 °F 62% 30.50 in 10.0 mi North 9.2 mph - N/A   Overcast
6:53 AM 36.0 °F 28.0 °F 25.0 °F 64% 30.52 in 10.0 mi North 11.5 mph - N/A   Overcast
7:53 AM 37.0 °F 31.0 °F 25.0 °F 62% 30.54 in 10.0 mi North 8.1 mph - N/A   Overcast
8:53 AM 39.0 °F 31.4 °F 26.1 °F 60% 30.54 in 10.0 mi NNE 12.7 mph - N/A   Overcast
9:53 AM 41.0 °F 34.7 °F 26.1 °F 55% 30.55 in 10.0 mi North 10.4 mph - N/A   Clear
10:53 AM 44.1 °F 38.6 °F 26.1 °F 49% 30.53 in 10.0 mi North 10.4 mph 16.1 mph N/A   Clear
11:53 AM 45.0 °F 38.2 °F 27.0 °F 49% 30.51 in 10.0 mi North 15.0 mph 18.4 mph N/A   Clear
12:53 PM 46.0 °F 40.2 °F 26.1 °F 46% 30.49 in 10.0 mi North 12.7 mph - N/A   Clear
1:53 PM 46.0 °F 41.0 °F 26.1 °F 46% 30.47 in 10.0 mi North 10.4 mph - N/A   Clear
2:53 PM 46.9 °F - 26.1 °F 44% 30.47 in 10.0 mi North 6.9 mph - N/A   Clear
3:53 PM 46.0 °F 41.9 °F 25.0 °F 44% 30.47 in 10.0 mi North 8.1 mph - N/A   Clear
4:53 PM 44.1 °F 40.8 °F 23.0 °F 43% 30.49 in 10.0 mi NNW 5.8 mph - N/A   Clear
5:53 PM 42.1 °F 38.4 °F 21.9 °F 45% 30.49 in 10.0 mi North 5.8 mph - N/A   Clear
6:53 PM 39.0 °F 34.0 °F 21.0 °F 49% 30.49 in 10.0 mi North 6.9 mph - N/A   Clear
7:53 PM 37.9 °F 32.7 °F 21.0 °F 51% 30.49 in 10.0 mi North 6.9 mph - N/A   Clear
8:53 PM 37.0 °F 32.4 °F 21.0 °F 52% 30.50 in 10.0 mi North 5.8 mph - N/A   Clear
9:53 PM 37.0 °F 33.3 °F 21.0 °F 52% 30.51 in 10.0 mi North 4.6 mph - N/A   Clear
10:53 PM 34.0 °F 28.8 °F 21.9 °F 61% 30.48 in 10.0 mi North 5.8 mph - N/A   Clear
11:53 PM 33.1 °F 26.9 °F 23.0 °F 66% 30.47 in 10.0 mi NNE 6.9 mph - N/A   Clear